Regional Weather Roundup
Issued by NWS Grand Forks, ND

Home | Current Version | Previous Version | Graphics & Text | Print | Product List | Glossary On
Versions: 1 2 3 4 5 6 7 8 9 10 11 12 13 14 15 16 17 18 19 20 21 22 23 24 25 26 27 28 29 30 31 32 33 34 35 36 37 38 39 40 41 42 43 44 45 46 47 48 49 50
000
ASUS43 KFGF 271810
RWRFGF
PRAIRIE TO PINES  WEATHER ROUNDUP
NATIONAL WEATHER SERVICE EASTERN NORTH DAKOTA/GRAND FORKS ND
100 PM CDT WED MAY 27 2015

 **SATELLITE DATA USED TO AUGMENT SKY COVER AT AUTOMATED STATIONS**
 *****  WEATHER ACROSS EASTERN NORTH DAKOTA  *****

CITY           SKY/WX    TMP DP  RH WIND       PRES   REMARKS
GRAND FORKS    FAIR      69  49  48 N9        29.97R
6HR MIN TEMP:  56; 6HR MAX TEMP:  69;

GRAND FRKS AFB FAIR      68  49  50 NE13G20   29.98S
GRAND FRKS NWS   N/A     68 N/A N/A NW9         N/A
DEVILS LAKE    FAIR      70  48  46 NE7       29.98S
6HR MIN TEMP:  54; 6HR MAX TEMP:  70;

FARGO          FAIR      77  55  46 VRB5      29.95S
WAHPETON ARPT  FAIR      75  50  41 W5        29.96S
$$

 ***** WEATHER ACROSS CENTRAL AND WESTERN NORTH DAKOTA  *****

CITY           SKY/WX    TMP DP  RH WIND       PRES   REMARKS
BISMARCK       MOSUNNY   79  48  33 S10       29.97S
6HR MIN TEMP:  52; 6HR MAX TEMP:  81;

MINOT          FAIR      75  50  41 E7        29.96S
6HR MIN TEMP:  57; 6HR MAX TEMP:  75;

JAMESTOWN      FAIR      78  50  37 VRB5      29.96S
6HR MIN TEMP:  56; 6HR MAX TEMP:  79;

MINOT AFB      FAIR      75  52  45 E8        29.96S
GARRISON       NOT AVBL
WILLISTON      CLOUDY    78  46  32 S6        29.91F
6HR MIN TEMP:  51; 6HR MAX TEMP:  78;

DICKINSON      PTSUNNY   76  49  38 S15G22    29.92F
6HR MIN TEMP:  49; 6HR MAX TEMP:  77;

HETTINGER      PTSUNNY   74  52  46 SE16G23   29.96F
6HR MIN TEMP:  49; 6HR MAX TEMP:  75;

$$

 *****  OTHER AIRPORT OBSERVATIONS IN OUR AREA  *****

CITY           SKY/WX    TMP DP  RH WIND       PRES   REMARKS
WALHALLA         N/A     64  45  48 MISG      30.01S
GRAFTON AIRPOR FAIR      66  46  48 N12G17    30.00S
VALLEY CITY AR   N/A     77  50  38 SE3       29.97R
CANDO          FAIR      68  46  45 NE6       30.01R
CAVALIER APRT  FAIR      66  45  45 N13G20    30.00R
GWINNER        NOT AVBL
SHEYENNE NWR     N/A     81  56  42 CALM      29.95S
ROLLA          FAIR      63  45  51 NE8       30.04R
 ***** THE ABOVE OBSERVATIONS ARE NON NWS ARE NOT QUALITY
       CONTROLLED AND MAY MIS-REPORT RAIN FOR SNOW...
$$

  *****  WEATHER ACROSS NORTHERN MINNESOTA  *****

CITY           SKY/WX    TMP DP  RH WIND       PRES   REMARKS
FLAG ISLAND    FAIR      63  46  55 NW10      29.95R
WARROAD        FAIR      70  52  52 NW9       29.96R
ROSEAU         FAIR      70  48  46 N10       29.95F
HALLOCK        FAIR      68  46  45 N12G20    29.97S
THF RVR FALLS  FAIR      72  48  43 N8        29.96S
6HR MIN TEMP:  55; 6HR MAX TEMP:  72;

BAUDETTE       FAIR      67  48  50 N14       29.95R
6HR MIN TEMP:  56; 6HR MAX TEMP:  68;

WASKISH        FAIR      70  57  64 SW8       29.94R
CROOKSTON      FAIR      72  50  46 N10       29.97R
STEPHEN NDAWN    N/A     70  48  46 N12         N/A
GREENBUSH NDAW   N/A     68  52  56 NW9         N/A
$$
  *****  WEATHER ACROSS CENTRAL AND WEST MINNESOTA  *****

CITY           SKY/WX    TMP DP  RH WIND       PRES   REMARKS
FOSSTON        FAIR      75  48  38 N5        29.96R
BEMIDJI        FAIR      76  49  38 NW10G18   29.94S
PARK RAPIDS    FAIR      81  45  28 N7        29.94R
6HR MIN TEMP:  55; 6HR MAX TEMP:  82;

ELBOW LAKE     FAIR      74  57  54 NW8       29.96S
6HR MIN TEMP:  55; 6HR MAX TEMP:  74;

WADENA         FAIR      77  57  50 NW8       29.95R
DETROIT LAKES  FAIR      75  50  41 N5        29.97R
MOORHEAD       FAIR      75  54  46 NW3       29.96R
FERGUS FALLS   FAIR      75  55  50 N5        29.96R
MORRIS MN      FAIR      81  54  39 NW12      29.96R
STAPLES        FAIR      79  52  38 NW9       29.94R
$$
  *****  WEATHER ELSEWHERE ACROSS MINNESOTA  *****

CITY           SKY/WX    TMP DP  RH WIND       PRES   REMARKS
DULUTH         FAIR      79  53  40 W9G20     29.88R
6HR MIN TEMP:  58; 6HR MAX TEMP:  79;

INTRNTL FALLS  FAIR      76  49  38 NW10      29.90R
6HR MIN TEMP:  51; 6HR MAX TEMP:  77;

ELY            NOT AVBL
CLOQUET        FAIR      79  52  38 W9        29.89R
WHEATON        FAIR      77  55  47 W9        29.98R
BRAINERD       FAIR      78  53  41 VRB3      29.93R
6HR MIN TEMP:  52; 6HR MAX TEMP:  78;

HIBBING        FAIR      79  47  32 NW14      29.89R
6HR MIN TEMP:  48; 6HR MAX TEMP:  79;

ALEXANDRIA     FAIR      76  55  48 NW7       29.97S
6HR MIN TEMP:  55; 6HR MAX TEMP:  76;

SAINT CLOUD    FAIR      77  55  46 W3        29.93S
6HR MIN TEMP:  53; 6HR MAX TEMP:  78;

MINNEAPOLIS    FAIR      76  58  53 W10       29.95R
6HR MIN TEMP:  57; 6HR MAX TEMP:  76;

$$

  *****  WEATHER ACROSS SOUTH DAKOTA  *****

CITY           SKY/WX    TMP DP  RH WIND       PRES   REMARKS
SIOUX FALLS    FAIR      80  51  36 NW8       30.02S
6HR MIN TEMP:  56; 6HR MAX TEMP:  81;

BROOKINGS      FAIR      79  48  34 W7        30.01F
WATERTOWN      FAIR      79  48  33 NW9       30.01S
6HR MIN TEMP:  55; 6HR MAX TEMP:  79;

HURON          SUNNY     81  49  32 CALM      30.00F
6HR MIN TEMP:  53; 6HR MAX TEMP:  81;

SISSETON         N/A     81  48  31 N8        29.96S
ABERDEEN       MOSUNNY   83  48  29 CALM      29.98S
6HR MIN TEMP:  55; 6HR MAX TEMP:  83;

MITCHELL       SUNNY     80  52  37 VRB5      30.02F
PIERRE         MOSUNNY   79  49  34 S17G24    29.99S
6HR MIN TEMP:  52; 6HR MAX TEMP:  80;

MOBRIDGE       MOSUNNY   79  50  36 S10       29.96F
RAPID CITY     PTSUNNY   71  55  56 S15G22    29.98F
6HR MIN TEMP:  51; 6HR MAX TEMP:  72;

$$

  *****  SOME WEATHER IN NEARBY STATES *****

CITY           SKY/WX    TMP DP  RH WIND       PRES   REMARKS
GLASGOW MT     CLOUDY    66  53  63 E14       29.93F
6HR MIN TEMP:  57; 6HR MAX TEMP:  68; 6HR PCP:  0.02;

GREAT FALLS MT CLOUDY    54  50  86 W9        30.03S
6HR MIN TEMP:  50; 6HR MAX TEMP:  55; 6HR PCP:  0.01;

CHEYENNE WY    PTSUNNY   60  43  53 W18G28    30.11S
6HR MIN TEMP:  48; 6HR MAX TEMP:  66; 6HR PCP:  0.04;

SCOTTSBLUFF NE MOSUNNY   69  54  58 VRB5      30.03F
6HR MIN TEMP:  53; 6HR MAX TEMP:  70;

OMAHA NE       FAIR      80  53  39 S7        30.06S
6HR MIN TEMP:  55; 6HR MAX TEMP:  80;

DES MOINES IA  FAIR      79  54  41 W6        30.05S
6HR MIN TEMP:  59; 6HR MAX TEMP:  79;

DAVENPORT IA   FAIR      73  60  63 NW15      30.04S
6HR MIN TEMP:  62; 6HR MAX TEMP:  73;

CHICAGO IL     PTSUNNY   72  58  61 W16G28    29.98R
6HR MIN TEMP:  65; 6HR MAX TEMP:  72; 6HR PCP: TRACE;

EAU CLAIRE WI  FAIR      74  58  57 W13       29.95R
6HR MIN TEMP:  56; 6HR MAX TEMP:  74;

LA CROSSE WI   FAIR      76  58  53 VRB7      29.98R
6HR MIN TEMP:  61; 6HR MAX TEMP:  77;

$$

  *****  SOME NATIONAL WEATHER *****

CITY           SKY/WX    TMP DP  RH WIND       PRES   REMARKS
LA GUARDIA NY  MOSUNNY   79  64  60 SE16      30.14F
6HR MIN TEMP:  71; 6HR MAX TEMP:  81;

RALEIGH NC     PTSUNNY   84  67  56 SW9       30.22F
6HR MIN TEMP:  73; 6HR MAX TEMP:  87;

ATLANTA GA     PTSUNNY   79  67  66 CALM      30.24F
6HR MIN TEMP:  68; 6HR MAX TEMP:  80;

NEW ORLEANS LA TSTM      70  64  81 NW7       30.19F
6HR MIN TEMP:  68; 6HR MAX TEMP:  84; 6HR PCP:  0.19;

OKLAHOMA CITY  TSTM      69  65  86 CALM      30.11R FOG
6HR MIN TEMP:  61; 6HR MAX TEMP:  78; 6HR PCP:  0.14;

ALBUQUERQUE NM PTSUNNY   74  43  32 S9        30.16F
6HR MIN TEMP:  57; 6HR MAX TEMP:  74;

SALT LAKE CITY CLOUDY    59  51  75 SE7       30.07F
6HR MIN TEMP:  51; 6HR MAX TEMP:  60; 6HR PCP:  0.01;



USA.gov is the U.S. government's official web portal to all federal, state and local government web resources and services.